Temp
47 45 45 44 43 43 42 41 40 39 37 37 35 33 31 30 29 28 27 27 26 26 26 27 27 27 29 27 27 26 26 26 26 25 25 25 24 24 25 23 23 23
47 46 45 44 43 43 43 43 41 40 38 38 36 34 31 30 29 29 28 27 27 26 26 27 27 27 26 27 26 26 26 26 26 27 25 25 24 24 24 24 23 23
48 46 45 44 44 44 43 43 42 41 39 38 37 35 31 30 29 28 28 27 27 26 26 27 26 27 27 26 26 27 26 26 26 26 26 25 25 24 24 24 23 23
48 47 46 46 46 44 43 42 41 40 39 37 35 35 33 31 30 28 28 29 27 27 26 26 27 26 27 26 26 26 26 26 26 26 26 25 24 25 24 24 24 23
47 47 47 46 45 44 43 42 41 40 39 38 36 34 33 31 29 28 28 28 27 27 27 27 26 27 27 26 26 26 26 26 25 25 25 24 24 25 25 25 23 23
48 47 47 46 45 44 43 42 41 40 39 37 35 35 34 32 31 29 29 28 27 27 27 27 27 27 27 27 26 26 27 26 26 25 25 25 24 25 26 25 23 23
47 46 46 45 44 44 44 43 41 40 38 37 35 35 34 32 31 30 29 29 28 28 27 27 27 27 27 26 26 26 26 26 25 25 25 25 25 24 24 24 24 23
48 47 47 44 43 42 41 41 40 39 38 35 35 35 35 33 31 30 29 28 28 28 27 27 27 27 26 27 27 26 26 27 26 25 25 24 25 24 23 25 24 23
48 47 46 44 43 42 42 42 40 39 38 36 36 35 35 33 31 30 29 29 28 28 27 27 27 27 27 27 27 27 26 26 26 25 25 25 24 24 24 23 23 23
46 45 44 44 43 43 42 40 39 39 38 37 36 35 33 32 30 30 29 28 28 28 27 27 27 27 27 27 27 27 27 26 26 25 25 25 25 24 24 24 23 23
46 45 44 43 43 41 40 38 37 37 37 37 36 34 33 31 31 30 29 28 29 28 28 28 28 28 27 27 27 27 27 27 26 25 25 25 25 25 26 24 24 24
46 45 45 44 44 42 40 39 37 36 36 37 36 35 33 32 32 30 30 29 29 29 29 28 28 28 28 28 27 26 26 26 26 26 26 25 25 24 24 24 24 24
46 46 45 44 43 42 41 39 38 37 37 36 36 36 34 32 31 29 29 29 29 29 29 28 28 27 27 27 27 26 26 26 26 25 25 25 24 25 24 24 24 23
47 46 45 44 43 41 39 38 36 35 35 35 34 35 34 33 30 30 30 29 29 29 29 28 28 27 27 27 27 27 27 26 26 26 25 25 25 24 24 24 24 24
46 45 45 43 40 40 38 37 36 35 34 35 35 35 34 33 32 32 31 29 28 29 28 28 28 28 28 28 27 27 27 27 26 26 26 25 25 24 24 24 22 22
46 44 43 42 41 40 38 37 36 35 35 35 35 35 34 33 32 31 31 30 29 28 28 28 28 29 30 32 32 29 27 28 27 26 26 26 25 24 24 23 23 22
45 43 42 40 41 40 38 37 37 36 35 34 33 34 34 33 32 30 30 30 30 30 29 29 29 29 32 35 35 35 30 27 27 27 26 26 25 24 24 24 23 22
43 41 40 40 39 38 38 37 36 35 35 34 34 34 34 32 31 31 31 31 31 31 30 30 29 31 34 35 36 37 34 28 27 27 26 26 25 24 24 24 24 23
37 37 38 38 38 38 38 36 35 35 36 35 35 34 33 32 32 32 32 32 31 31 31 31 30 33 35 36 37 37 37 33 27 27 27 26 25 25 24 24 23 23
38 38 38 39 39 38 37 37 36 36 36 37 36 34 33 33 34 33 33 32 32 32 32 32 31 32 36 36 37 37 38 36 28 28 27 27 26 25 25 24 24 23
39 39 40 40 39 38 37 37 36 36 35 35 34 34 34 34 34 33 33 33 32 32 32 33 32 33 36 36 37 37 38 37 29 28 27 26 26 25 25 25 24 24
39 40 40 39 39 38 37 37 37 37 36 36 35 35 36 35 34 34 34 34 34 31 32 32 33 34 35 36 37 37 38 34 30 28 27 26 26 26 25 25 25 24
39 40 40 39 39 38 38 38 37 37 37 37 36 36 36 35 35 36 36 35 33 31 32 33 33 34 35 36 37 38 36 31 29 28 27 27 27 27 26 25 25 24
39 40 40 40 39 39 39 39 39 38 38 37 37 36 35 35 35 35 35 33 33 32 33 34 34 33 35 36 36 37 35 31 30 28 28 27 27 27 26 25 25 26
39 40 39 39 39 39 39 39 38 38 37 37 37 37 36 36 35 35 34 31 32 34 31 33 34 32 34 35 36 37 35 31 29 27 27 27 27 27 26 25 24 25
37 38 39 39 39 39 39 40 39 38 37 35 35 36 36 35 33 32 31 31 32 32 33 32 33 32 31 35 36 36 37 32 29 27 27 27 26 26 26 24 23 23
MSLP
1029.32 1029.50 1029.72 1030.08 1030.34 1030.70 1031.06 1031.40 1031.70 1032.00 1032.44 1032.74 1032.92 1033.20 1033.44 1033.70 1033.98 1034.14 1034.38 1034.48 1034.50 1034.62 1034.76 1034.76 1034.72 1034.78 1034.90 1034.98 1035.20 1035.42 1035.44 1035.46 1035.50 1035.54 1035.58 1035.64 1035.64 1035.68 1035.76 1035.82 1035.88 1036.02
1029.08 1029.22 1029.52 1029.88 1030.18 1030.50 1030.82 1031.04 1031.28 1031.54 1031.96 1032.32 1032.58 1032.96 1033.40 1033.66 1033.82 1033.96 1034.28 1034.38 1034.52 1034.68 1034.82 1034.78 1034.70 1034.76 1034.82 1034.94 1035.26 1035.46 1035.52 1035.50 1035.46 1035.56 1035.52 1035.58 1035.68 1035.74 1035.78 1035.80 1035.86 1036.06
1028.82 1029.06 1029.40 1029.60 1029.74 1030.06 1030.42 1030.76 1031.04 1031.34 1031.70 1032.06 1032.42 1032.78 1033.14 1033.46 1033.62 1033.98 1034.22 1034.34 1034.50 1034.72 1034.82 1034.74 1034.70 1034.74 1034.76 1034.94 1035.28 1035.44 1035.48 1035.46 1035.42 1035.48 1035.44 1035.52 1035.70 1035.72 1035.80 1035.84 1035.88 1035.98
1028.54 1028.76 1029.08 1029.26 1029.48 1029.84 1030.28 1030.66 1030.98 1031.30 1031.68 1032.04 1032.24 1032.58 1032.94 1033.28 1033.46 1033.88 1034.10 1034.32 1034.50 1034.68 1034.78 1034.70 1034.62 1034.70 1034.68 1034.90 1035.24 1035.40 1035.46 1035.42 1035.38 1035.40 1035.36 1035.60 1035.70 1035.72 1035.78 1035.84 1035.88 1036.00
1028.50 1028.72 1028.94 1029.12 1029.36 1029.72 1030.08 1030.32 1030.58 1030.94 1031.32 1031.60 1032.08 1032.56 1032.84 1033.08 1033.38 1033.68 1033.94 1034.22 1034.46 1034.58 1034.66 1034.56 1034.62 1034.60 1034.64 1034.86 1035.16 1035.30 1035.42 1035.38 1035.42 1035.34 1035.28 1035.44 1035.64 1035.68 1035.74 1035.80 1035.84 1035.88
1028.26 1028.54 1028.80 1028.92 1029.14 1029.42 1029.78 1029.98 1030.26 1030.68 1031.12 1031.48 1031.80 1032.32 1032.54 1032.72 1033.06 1033.36 1033.66 1033.96 1034.30 1034.42 1034.44 1034.44 1034.48 1034.54 1034.58 1034.74 1035.08 1035.20 1035.28 1035.32 1035.32 1035.26 1035.22 1035.32 1035.48 1035.66 1035.68 1035.70 1035.74 1035.76
1027.94 1028.24 1028.56 1028.78 1028.96 1029.14 1029.32 1029.62 1030.02 1030.48 1030.88 1031.14 1031.78 1032.10 1032.34 1032.50 1032.78 1033.10 1033.40 1033.70 1034.04 1034.16 1034.16 1034.16 1034.28 1034.40 1034.50 1034.68 1034.92 1035.06 1035.24 1035.20 1035.24 1035.18 1035.12 1035.26 1035.40 1035.50 1035.66 1035.64 1035.64 1035.62
1027.64 1027.90 1028.20 1028.56 1028.78 1028.96 1029.12 1029.46 1029.86 1030.28 1030.70 1031.14 1031.42 1031.72 1032.04 1032.18 1032.56 1032.92 1033.18 1033.44 1033.80 1033.90 1033.96 1034.00 1034.12 1034.18 1034.34 1034.54 1034.72 1034.90 1035.06 1035.16 1035.08 1035.06 1035.06 1035.14 1035.30 1035.30 1035.46 1035.54 1035.54 1035.50
1027.46 1027.66 1027.96 1028.26 1028.50 1028.80 1028.96 1029.20 1029.58 1030.06 1030.56 1030.86 1031.16 1031.50 1031.94 1032.06 1032.32 1032.68 1032.94 1033.18 1033.50 1033.64 1033.72 1033.84 1033.92 1034.00 1034.20 1034.36 1034.56 1034.68 1034.76 1034.86 1034.88 1034.90 1034.92 1035.02 1035.12 1035.12 1035.20 1035.42 1035.42 1035.40
1027.08 1027.34 1027.64 1027.90 1028.10 1028.32 1028.62 1028.92 1029.32 1029.78 1030.30 1030.58 1030.78 1031.14 1031.64 1032.08 1032.32 1032.58 1032.78 1032.98 1033.24 1033.40 1033.48 1033.56 1033.76 1033.86 1034.00 1034.20 1034.34 1034.48 1034.50 1034.52 1034.68 1034.76 1034.80 1034.86 1034.92 1034.96 1035.04 1035.18 1035.14 1035.20
1026.76 1026.98 1027.22 1027.48 1027.64 1027.98 1028.26 1028.76 1029.18 1029.60 1030.12 1030.46 1030.76 1031.02 1031.38 1031.94 1032.28 1032.58 1032.64 1032.78 1032.96 1033.06 1033.16 1033.30 1033.44 1033.60 1033.72 1034.00 1034.20 1034.30 1034.24 1034.28 1034.40 1034.54 1034.64 1034.72 1034.78 1034.82 1034.84 1034.92 1034.98 1034.92
1026.32 1026.58 1026.70 1026.92 1027.28 1027.72 1028.10 1028.44 1028.92 1029.38 1029.84 1030.24 1030.54 1030.76 1031.10 1031.52 1031.84 1032.24 1032.24 1032.30 1032.54 1032.76 1032.86 1033.00 1033.24 1033.40 1033.48 1033.64 1033.90 1034.08 1034.10 1034.08 1034.18 1034.32 1034.42 1034.52 1034.62 1034.66 1034.66 1034.72 1034.68 1034.66
1025.80 1025.96 1026.24 1026.64 1027.02 1027.42 1027.92 1028.36 1028.68 1029.04 1029.48 1029.82 1030.24 1030.50 1030.70 1031.10 1031.62 1031.96 1032.08 1031.98 1032.16 1032.44 1032.60 1032.78 1033.02 1033.22 1033.34 1033.48 1033.70 1033.86 1033.86 1033.84 1033.98 1034.12 1034.24 1034.36 1034.42 1034.42 1034.42 1034.46 1034.48 1034.48
1025.26 1025.60 1026.08 1026.38 1026.80 1027.32 1027.72 1028.02 1028.46 1028.88 1029.24 1029.64 1030.04 1030.24 1030.46 1030.80 1031.22 1031.58 1031.74 1031.76 1031.86 1032.12 1032.34 1032.60 1032.82 1033.02 1033.16 1033.28 1033.44 1033.56 1033.62 1033.64 1033.72 1033.82 1033.98 1034.16 1034.20 1034.24 1034.22 1034.18 1034.16 1034.24
1025.00 1025.46 1025.84 1026.28 1026.74 1027.12 1027.54 1027.92 1028.24 1028.68 1029.12 1029.44 1029.74 1029.98 1030.18 1030.46 1030.88 1031.22 1031.46 1031.60 1031.76 1031.96 1032.18 1032.42 1032.56 1032.64 1032.78 1032.90 1033.10 1033.28 1033.36 1033.34 1033.50 1033.56 1033.68 1033.78 1033.90 1033.94 1033.98 1033.94 1033.92 1034.02
1024.78 1025.20 1025.60 1026.06 1026.50 1026.78 1027.14 1027.60 1028.02 1028.44 1028.84 1029.14 1029.38 1029.68 1029.98 1030.32 1030.72 1031.06 1031.16 1031.14 1031.34 1031.72 1032.00 1032.18 1032.26 1032.30 1032.36 1032.44 1032.58 1032.72 1032.92 1033.08 1033.28 1033.38 1033.46 1033.54 1033.54 1033.60 1033.66 1033.72 1033.66 1033.72
1024.58 1024.92 1025.38 1025.76 1026.06 1026.54 1027.00 1027.40 1027.76 1028.18 1028.56 1028.82 1029.10 1029.38 1029.62 1029.96 1030.38 1030.74 1030.88 1030.94 1031.04 1031.30 1031.58 1031.74 1031.84 1031.92 1032.00 1032.06 1032.12 1032.26 1032.54 1032.80 1032.94 1033.08 1033.28 1033.32 1033.32 1033.28 1033.12 1033.20 1033.36 1033.50
1024.24 1024.74 1025.24 1025.62 1026.08 1026.36 1026.72 1027.14 1027.60 1028.04 1028.32 1028.58 1028.92 1029.20 1029.44 1029.76 1030.06 1030.24 1030.50 1030.64 1030.72 1030.90 1031.08 1031.18 1031.38 1031.52 1031.64 1031.64 1031.64 1031.72 1032.00 1032.42 1032.68 1032.78 1032.96 1033.00 1033.02 1033.02 1033.00 1033.02 1032.98 1033.08
1024.42 1024.80 1025.16 1025.52 1025.80 1026.12 1026.60 1027.08 1027.38 1027.76 1028.02 1028.24 1028.40 1028.70 1029.22 1029.38 1029.44 1029.84 1030.02 1030.22 1030.34 1030.38 1030.48 1030.72 1031.00 1031.14 1031.20 1031.20 1031.18 1031.26 1031.48 1031.94 1032.32 1032.48 1032.50 1032.54 1032.60 1032.64 1032.68 1032.70 1032.78 1032.84
1024.36 1024.66 1024.96 1025.24 1025.60 1026.02 1026.44 1026.78 1027.12 1027.16 1027.28 1027.60 1028.02 1028.46 1028.64 1028.82 1029.08 1029.26 1029.54 1029.80 1029.86 1029.92 1030.00 1030.26 1030.50 1030.70 1030.78 1030.76 1030.78 1030.88 1031.10 1031.42 1031.88 1032.10 1032.16 1032.12 1032.12 1032.18 1032.26 1032.30 1032.36 1032.40
1024.14 1024.40 1024.64 1025.00 1025.40 1025.80 1026.20 1026.44 1026.58 1026.76 1027.10 1027.36 1027.64 1027.84 1028.12 1028.28 1028.54 1028.94 1029.10 1029.28 1029.46 1029.62 1029.78 1029.84 1029.90 1030.22 1030.30 1030.30 1030.34 1030.50 1030.74 1030.98 1031.44 1031.76 1031.86 1031.84 1031.82 1031.80 1031.74 1031.76 1031.86 1032.04
1023.76 1024.06 1024.34 1024.70 1025.14 1025.52 1025.84 1025.98 1026.16 1026.32 1026.52 1026.88 1027.24 1027.48 1027.70 1027.94 1028.20 1028.40 1028.44 1028.52 1028.72 1029.18 1029.44 1029.40 1029.46 1029.72 1029.80 1029.84 1029.94 1030.14 1030.42 1030.72 1031.04 1031.30 1031.40 1031.40 1031.38 1031.38 1031.36 1031.38 1031.52 1031.66
1023.58 1023.76 1024.02 1024.36 1024.70 1025.02 1025.20 1025.34 1025.56 1025.82 1026.08 1026.42 1026.82 1026.96 1027.20 1027.46 1027.48 1027.60 1027.76 1028.08 1028.44 1028.76 1028.96 1028.88 1029.02 1029.22 1029.34 1029.42 1029.60 1029.80 1030.12 1030.44 1030.70 1030.92 1031.00 1030.94 1030.76 1030.74 1030.84 1031.00 1031.18 1031.28
1023.22 1023.32 1023.54 1023.80 1024.20 1024.38 1024.48 1024.66 1024.96 1025.34 1025.66 1025.94 1026.14 1026.44 1026.76 1026.84 1027.14 1027.48 1027.70 1027.88 1028.08 1028.26 1028.34 1028.44 1028.44 1028.70 1028.90 1029.00 1029.24 1029.44 1029.66 1029.98 1030.24 1030.44 1030.44 1030.42 1030.24 1030.24 1030.40 1030.60 1030.70 1030.82
1022.84 1023.00 1023.18 1023.46 1023.70 1023.84 1024.06 1024.32 1024.56 1024.78 1025.14 1025.66 1025.90 1026.12 1026.26 1026.56 1026.94 1027.10 1027.28 1027.54 1027.64 1027.72 1028.00 1028.20 1028.04 1028.24 1028.50 1028.66 1028.82 1029.06 1029.30 1029.60 1029.88 1030.06 1030.04 1029.88 1029.86 1029.72 1029.92 1030.18 1030.32 1030.46
1022.68 1022.76 1022.86 1023.00 1023.16 1023.42 1023.70 1023.86 1024.18 1024.70 1025.08 1025.36 1025.66 1025.88 1026.06 1026.32 1026.64 1026.90 1027.02 1027.12 1027.36 1027.60 1027.64 1027.68 1027.76 1027.80 1028.08 1028.20 1028.40 1028.60 1028.74 1029.10 1029.46 1029.68 1029.44 1029.20 1029.36 1029.40 1029.42 1029.68 1029.90 1029.98
Wind_Speed
7 6 7 7 7 7 7 8 7 8 7 6 6 6 6 4 5 5 3 3 3 3 3 3 4 4 4 4 3 3 3 4 3 3 4 4 4 4 4 4 3 3
8 8 6 5 5 5 6 6 8 8 8 7 6 6 4 5 5 5 5 4 3 3 3 3 4 4 5 5 3 3 3 3 4 2 4 4 3 3 3 4 3 2
8 7 7 8 9 8 8 7 7 7 7 6 6 6 6 5 6 4 5 5 4 4 4 4 4 4 5 5 4 3 3 3 4 3 4 4 3 3 3 3 3 3
8 9 8 9 7 7 6 7 6 5 5 6 8 7 6 5 6 6 5 5 5 4 4 4 4 4 5 5 4 3 3 3 3 3 3 2 2 3 3 3 2 2
9 9 8 7 5 6 7 8 8 7 8 7 7 6 6 7 6 6 6 5 5 5 4 5 4 4 5 5 4 4 3 4 3 3 4 3 3 3 2 3 3 2
8 8 8 8 8 8 8 8 8 8 7 7 10 7 7 8 8 8 7 7 6 6 5 5 5 4 5 5 4 4 4 4 3 3 3 3 3 2 2 3 3 2
8 8 8 7 8 8 8 8 7 7 7 6 7 8 8 9 8 8 8 7 7 6 6 6 6 5 5 5 4 4 4 3 3 3 3 2 2 2 1 2 3 3
9 8 9 8 9 8 8 7 7 7 7 7 9 8 8 9 9 7 7 8 7 7 6 6 5 6 5 5 5 5 4 3 4 3 3 3 2 2 2 2 2 3
9 9 8 9 9 8 8 9 8 7 7 8 8 8 7 7 8 8 8 8 7 7 6 6 6 6 5 5 5 5 6 4 4 4 4 4 3 3 2 2 2 3
10 9 10 10 10 9 10 9 8 7 8 8 8 7 8 6 6 7 7 8 7 7 7 6 6 6 6 5 6 6 6 6 5 4 4 3 3 3 2 3 3 3
10 10 11 11 11 9 10 9 8 8 7 7 7 7 7 6 6 6 7 8 8 8 8 7 7 7 7 6 5 5 6 5 5 4 4 4 4 3 3 3 3 4
11 10 12 12 11 10 10 10 10 9 8 7 7 8 8 8 9 8 8 9 8 8 7 7 6 6 7 7 6 5 5 5 5 5 4 4 3 3 3 3 4 4
11 12 11 10 10 9 8 8 9 9 9 9 8 8 9 9 8 8 7 8 8 7 7 7 7 6 6 6 6 5 6 5 5 5 4 4 3 4 4 4 4 4
11 9 9 9 8 8 9 10 9 9 9 8 8 9 9 9 9 9 8 7 8 7 7 6 6 6 6 6 6 6 6 5 5 5 5 4 4 4 4 4 5 4
8 8 8 8 9 9 10 10 9 8 7 8 8 8 6 7 8 8 8 8 6 7 6 6 7 8 7 7 7 7 6 6 6 6 5 5 4 4 4 5 4 4
8 8 8 9 10 11 10 9 9 9 9 9 9 8 7 6 7 7 8 9 9 7 6 7 7 6 7 12 10 8 7 6 5 6 5 5 5 5 5 5 5 4
8 9 9 10 10 9 8 9 10 9 9 9 9 9 9 8 8 8 8 7 8 8 9 8 7 6 11 14 14 14 8 6 7 6 5 5 5 6 6 6 5 5
9 8 8 8 8 10 9 9 8 8 9 9 8 9 8 6 8 9 8 8 8 8 9 8 7 8 14 15 16 16 12 7 6 6 6 6 6 7 6 6 6 5
6 7 8 8 9 9 8 8 9 8 9 9 11 8 6 9 10 9 10 9 9 10 10 9 7 10 15 16 16 16 16 10 6 6 6 7 7 7 7 7 6 6
7 8 9 9 8 8 8 9 9 11 11 9 7 7 10 9 9 10 9 9 10 10 9 8 9 10 16 16 16 16 16 12 6 7 7 7 7 8 7 7 7 7
8 9 9 8 8 8 9 10 11 10 9 9 9 10 10 10 10 10 9 9 9 9 8 9 9 12 16 17 17 16 16 12 6 6 6 7 7 7 8 8 8 7
9 9 9 8 9 9 10 11 11 11 11 9 8 8 7 6 7 8 10 11 10 8 8 10 8 14 17 17 17 16 16 9 7 7 7 7 8 8 8 8 7 7
9 10 9 9 10 11 12 12 11 11 10 7 8 9 9 9 10 10 9 9 8 9 10 10 9 12 16 17 16 17 11 7 7 7 7 8 9 8 8 7 7 7
10 10 11 11 10 12 12 11 10 7 8 9 10 10 10 10 7 6 6 6 8 9 10 10 9 10 15 16 16 17 13 9 8 8 9 9 9 8 7 7 8 12
9 10 9 10 11 11 10 10 10 10 8 7 7 7 8 6 7 8 7 6 8 9 9 11 10 9 13 15 16 16 13 8 8 7 9 9 9 9 7 7 7 8
8 9 9 10 11 10 9 10 7 6 7 9 8 7 7 6 6 7 8 8 7 8 9 10 10 9 9 15 15 17 17 10 7 8 10 11 9 9 8 7 7 7
Wind_Direction
196 185 186 186 187 185 178 179 178 176 182 178 185 192 191 181 161 157 162 155 147 156 165 152 133 131 130 119 124 130 132 128 126 134 129 126 125 122 116 116 112 125
201 192 187 181 179 177 178 184 177 179 180 182 182 171 175 167 168 152 157 160 158 173 177 156 140 141 138 131 135 146 146 137 136 151 134 131 137 127 131 134 132 135
199 192 186 189 193 186 180 179 173 177 174 177 162 169 171 174 155 155 156 157 163 178 181 164 147 149 143 139 152 162 157 151 149 159 138 146 154 146 158 146 137 162
203 199 198 200 191 178 166 161 166 163 154 161 177 174 168 167 153 155 158 159 165 183 182 164 158 154 142 146 152 163 169 167 168 156 140 135 172 162 169 156 148 158
204 203 204 197 175 162 163 172 176 174 177 179 160 161 166 159 158 159 161 164 174 182 179 168 161 158 148 148 160 159 173 168 181 158 144 167 201 178 176 157 160 193
207 200 199 187 178 171 173 181 181 177 174 166 167 164 178 163 165 166 167 166 183 182 180 168 167 166 159 158 163 174 171 172 192 162 147 165 189 204 160 166 169 197
201 193 192 191 181 175 177 180 173 173 179 168 154 181 175 170 171 172 169 169 177 186 181 174 172 173 167 161 171 174 182 180 182 174 157 188 173 178 179 165 188 202
203 192 190 185 182 179 174 171 172 176 170 155 178 182 182 175 172 172 170 167 180 189 184 177 177 174 169 164 172 172 177 181 180 176 170 188 189 193 175 189 185 198
199 194 187 185 182 181 183 178 175 169 166 174 181 178 185 180 172 173 171 168 182 188 182 182 182 179 173 173 179 177 176 186 183 174 177 187 195 210 191 170 182 209
197 189 186 186 186 186 185 179 169 169 173 184 182 168 177 181 168 173 168 171 183 188 189 184 184 182 175 183 186 182 181 184 184 182 190 197 197 201 190 183 200 204
197 188 190 192 193 186 183 170 171 167 174 187 179 176 171 165 169 173 173 175 187 193 190 190 190 182 179 187 194 191 188 183 181 183 193 202 203 206 206 196 201 210
199 193 197 195 191 186 182 175 169 171 175 183 183 180 172 177 175 182 184 183 190 195 194 192 186 185 186 188 190 192 195 190 179 182 194 199 203 211 215 212 213 214
199 201 197 192 190 185 173 171 175 173 175 185 184 187 181 177 181 183 194 185 191 190 196 190 188 188 189 188 189 192 197 194 185 186 195 197 205 213 221 220 218 213
205 196 191 191 180 172 177 176 173 175 182 179 177 190 187 182 179 187 195 190 189 193 195 186 185 191 193 190 190 193 197 203 190 189 194 200 207 220 223 227 223 213
193 187 185 175 174 174 177 180 179 177 175 179 186 196 191 181 182 186 185 191 192 194 193 188 192 198 194 189 188 197 203 203 196 195 192 196 205 219 227 231 233 219
187 182 180 174 177 183 183 178 176 176 179 185 190 192 187 177 179 190 195 193 189 193 196 196 202 203 195 192 190 192 199 200 194 198 194 194 202 216 234 233 233 225
184 188 176 183 185 177 176 179 182 176 182 189 191 190 188 179 178 191 200 196 192 192 201 206 206 202 197 200 200 202 195 196 195 200 191 194 202 207 225 230 234 229
190 177 178 180 172 183 181 180 170 176 188 190 189 194 191 173 189 200 198 198 196 198 207 210 210 201 202 204 206 207 200 193 197 196 191 199 202 210 221 223 229 228
169 170 177 178 186 182 175 170 177 186 194 193 200 192 173 194 201 193 202 198 199 203 210 208 213 202 205 206 209 210 207 192 202 198 196 204 203 209 213 219 221 223
173 176 183 186 181 174 172 179 184 199 200 197 189 181 196 202 200 202 199 201 206 210 212 208 213 201 205 208 211 210 209 199 200 201 210 210 207 206 211 214 214 214
178 181 186 182 176 175 178 189 197 201 195 195 193 197 198 202 201 202 205 206 208 208 212 215 215 197 206 210 211 209 209 206 194 203 212 220 219 213 213 213 212 212
179 184 185 179 176 180 188 198 202 200 201 196 195 202 205 200 208 205 209 210 209 201 208 223 214 196 206 211 211 209 205 205 198 204 214 222 226 223 220 217 211 207
183 184 186 182 183 188 197 202 201 205 205 186 197 204 202 204 209 207 210 208 201 200 208 223 219 204 205 209 210 206 199 202 202 208 219 224 230 227 224 217 212 208
189 188 190 190 189 197 202 205 204 202 200 186 198 200 208 214 208 211 210 204 205 210 211 219 225 207 206 208 207 203 197 200 202 207 222 226 237 234 225 222 218 214
191 192 193 191 196 204 202 203 201 202 191 177 203 206 217 205 198 211 214 208 211 216 206 217 231 213 205 209 204 202 200 201 199 207 222 231 230 240 229 225 227 220
192 194 197 196 202 204 203 207 197 182 183 191 202 204 211 200 198 203 213 218 207 212 216 217 225 225 206 209 204 203 200 197 197 202 224 230 225 231 239 234 229 230